RH
100 100 100 100 100 100 100 100 88 100 92 95 100 100 100 100 100 100 100 90 73 58 48 49 58 58 46 61 78 74 71 68 57 57 66 67 51 54
100 100 100 100 100 100 100 100 99 91 96 89 93 100 100 100 100 100 90 65 43 42 52 57 65 48 69 65 69 66 72 67 63 59 54 58 56 81
100 100 100 100 100 100 100 100 100 98 94 99 100 100 100 95 80 47 58 50 47 59 56 61 61 81 87 67 79 80 87 76 68 52 47 73 81 65
100 100 100 100 100 100 100 100 100 100 100 100 100 100 86 79 56 53 52 63 78 81 76 83 84 92 75 81 85 94 78 65 66 74 88 65 49 55
100 100 98 98 100 100 100 100 82 77 90 94 76 80 97 75 69 62 86 96 94 85 100 100 99 95 86 69 87 78 86 79 65 70 77 64 54 96
100 98 99 100 100 100 100 90 88 94 98 94 92 98 80 74 78 99 88 80 84 97 90 81 77 66 67 72 52 63 67 63 90 64 50 51 92 78
100 100 98 90 100 100 100 100 100 100 94 85 90 86 85 82 95 95 97 95 82 80 76 70 78 80 96 84 100 74 90 67 62 85 94 78 88 94
100 100 83 88 84 100 100 100 100 100 100 95 86 83 84 100 100 93 96 100 80 84 88 59 100 100 87 88 93 100 67 52 68 75 88 89 100 100
86 80 81 64 63 95 94 100 100 100 100 95 100 100 97 100 100 100 100 80 78 79 77 96 89 99 78 96 94 44 58 78 93 95 95 90 81 95
100 98 93 77 96 89 77 94 95 93 89 100 100 100 100 98 100 86 95 80 72 67 98 100 97 100 84 76 73 99 100 100 100 90 72 74 94 95
100 100 100 100 100 99 78 78 81 72 95 95 89 78 72 94 100 73 75 67 97 89 91 91 86 75 94 97 100 100 95 85 88 77 71 87 100 92
100 100 100 99 100 99 98 73 57 56 64 92 85 74 66 71 83 95 98 82 64 69 88 64 97 100 100 100 100 93 90 72 82 80 89 66 65 54
100 100 100 99 100 99 86 93 93 94 91 89 92 83 90 99 72 76 84 99 86 90 91 100 100 100 97 99 100 92 88 99 91 89 79 61 53 37
100 100 100 100 100 96 99 99 97 99 90 82 85 99 82 88 74 90 95 100 100 99 100 100 100 99 100 100 88 97 89 94 72 62 54 48 37 33
100 94 82 80 90 78 75 76 86 88 95 100 98 99 100 100 100 100 100 100 99 100 100 94 100 100 100 64 71 97 84 70 56 43 39 35 34 26
100 100 100 100 100 95 97 100 100 100 100 100 100 100 100 100 100 100 100 100 100 100 99 98 100 95 72 71 68 60 38 36 40 31 27 26 22 12
100 100 100 100 100 100 100 100 100 100 100 100 100 100 100 100 100 100 98 66 94 72 59 56 68 72 68 56 52 42 35 29 24 20 19 16 12 7
100 100 100 100 100 100 100 100 100 100 99 100 100 100 100 99 88 88 100 78 50 48 52 58 77 58 51 54 43 26 18 17 18 16 13 9 9 6
86 87 94 100 100 100 98 100 100 87 79 65 60 72 64 64 44 67 39 50 46 38 46 55 56 54 60 63 69 28 13 14 13 13 10 8 7 5
51 57 61 76 89 80 78 61 46 48 43 38 35 39 40 48 46 50 33 30 33 42 50 56 55 66 64 57 40 26 13 12 12 10 8 8 6 3
44 45 47 48 48 38 38 40 36 35 34 31 35 43 54 66 38 34 42 44 49 60 73 69 70 60 45 28 13 14 14 13 10 7 6 5 5 4
54 54 51 48 44 43 39 36 35 34 42 48 51 42 38 42 43 47 47 53 69 79 73 78 66 42 19 13 12 13 14 11 7 6 4 4 5 4
52 49 46 46 43 44 42 41 42 52 51 49 52 51 56 58 54 61 70 81 84 74 74 66 43 16 15 12 13 12 9 7 6 5 4 4 4 4
Wind_Speed
66 69 70 73 74 79 81 76 70 71 72 73 73 69 71 72 73 74 76 77 81 80 81 77 73 74 74 76 77 78 79 80 80 87 90 94 100 103
62 61 67 68 71 72 70 70 71 72 74 75 74 73 74 76 75 77 79 85 84 82 79 79 80 78 79 80 82 84 85 87 91 96 97 104 104 101
65 61 63 67 69 69 70 71 72 71 71 72 74 75 78 80 79 80 83 83 77 79 79 81 83 84 86 85 86 90 92 96 97 101 104 110 107 111
68 69 70 70 69 71 73 74 74 74 74 75 75 77 77 80 80 79 77 77 78 81 81 84 87 89 89 88 90 94 98 105 104 108 108 113 114 114
74 73 70 71 73 73 73 71 73 74 74 77 74 74 76 77 79 78 79 81 82 83 85 90 92 94 96 96 98 103 109 109 112 112 116 117 123 123
83 80 74 74 73 76 78 73 71 72 76 77 77 76 78 80 80 82 83 86 87 88 89 92 96 102 103 106 108 110 113 115 118 116 120 122 123 128
81 83 81 83 75 75 74 72 73 75 78 80 78 82 84 84 86 90 90 88 90 93 97 102 108 105 109 113 116 114 117 118 121 124 128 132 133 139
85 85 86 87 83 83 80 77 77 79 80 83 84 86 84 93 87 89 89 93 97 101 104 109 107 112 115 121 119 124 122 130 126 128 130 138 144 144
85 90 89 88 87 84 84 82 82 83 81 84 85 85 86 89 93 96 101 104 107 106 109 113 116 118 125 125 123 132 132 133 136 139 143 149 149 139
91 89 89 86 83 86 86 85 86 87 87 86 89 90 95 96 96 102 102 107 111 113 116 118 120 126 128 130 134 138 143 146 148 150 151 146 138 134
99 91 90 86 89 87 89 91 91 92 91 93 94 98 101 100 102 103 108 112 115 120 118 118 127 126 129 133 141 148 153 158 153 145 144 137 133 133
98 94 92 93 93 93 91 94 97 98 99 99 102 101 104 104 107 111 112 120 121 122 121 127 127 132 133 144 155 160 161 160 147 144 141 134 135 129
105 103 103 97 98 97 99 95 95 96 100 103 102 103 105 112 112 116 116 117 124 127 129 128 137 142 147 154 153 156 149 144 142 134 137 130 121 114
108 107 107 106 104 102 101 102 103 102 104 107 105 107 111 110 117 119 117 124 129 134 138 141 145 147 148 146 146 138 134 134 132 129 117 112 116 119
114 116 118 113 111 112 111 115 114 110 104 107 116 118 112 114 120 126 129 137 138 142 142 149 148 147 142 141 134 129 128 126 117 110 111 115 120 119
118 121 116 110 112 110 109 113 108 111 113 114 121 122 125 127 131 137 139 143 145 142 140 142 138 133 130 127 126 123 114 110 108 110 111 114 116 115
116 120 117 117 117 114 117 122 117 119 122 124 124 129 134 132 135 136 136 142 139 137 140 139 124 118 116 114 113 112 112 112 113 109 105 104 111 111
124 127 124 124 125 125 125 126 126 134 135 136 141 137 136 139 136 137 129 132 135 126 119 116 112 110 108 112 115 114 114 113 109 107 105 101 102 104
126 130 132 127 130 124 126 127 131 137 133 130 130 122 123 121 127 117 121 118 117 115 100 98 100 101 107 113 121 122 109 103 103 104 102 104 104 95
112 114 119 115 115 109 107 102 102 90 104 109 112 109 112 109 104 103 104 101 93 94 97 99 101 106 110 115 116 120 107 103 102 97 95 98 99 86
106 105 104 101 99 105 102 95 89 87 84 84 83 84 88 91 93 89 86 87 92 97 102 104 108 112 115 114 111 106 107 103 99 94 86 84 83 79
85 84 84 83 82 82 84 84 83 83 80 78 80 80 81 83 84 85 88 91 95 100 103 107 113 116 112 108 102 101 95 96 99 94 83 71 68 70
89 89 86 86 86 85 83 80 80 78 79 80 81 82 82 85 86 87 91 95 100 103 106 112 117 112 106 99 98 93 91 89 87 83 80 67 65 58
Wind_Direction
241 245 247 250 250 249 257 260 261 264 265 266 267 272 275 280 281 279 278 281 281 283 286 289 292 294 296 296 295 297 296 297 300 303 307 309 310 307
243 245 247 250 251 252 256 259 262 264 267 266 268 271 274 276 278 278 276 277 283 290 286 287 289 293 296 296 293 294 295 297 300 304 307 306 308 308
245 245 249 253 253 255 258 261 263 265 268 269 270 274 273 271 273 279 278 285 289 290 290 289 291 294 296 296 294 294 296 299 301 304 305 308 309 306
245 246 250 251 254 256 257 259 262 265 265 267 269 270 274 275 277 282 284 287 288 288 290 291 293 295 295 295 295 294 301 300 301 302 303 307 309 305
240 244 248 251 252 255 257 261 262 265 267 267 267 270 274 277 278 281 283 284 286 289 291 293 293 295 297 295 294 296 297 299 301 302 304 306 304 302
243 242 247 252 255 256 258 260 262 266 268 266 268 271 274 278 281 281 283 287 288 290 292 294 295 295 296 296 298 297 298 299 300 301 303 305 300 303
241 242 248 251 254 257 256 260 261 266 268 265 266 271 277 283 282 282 286 286 289 292 295 297 296 297 296 298 298 298 298 301 301 301 302 302 302 304
241 245 248 249 252 256 255 258 264 267 267 267 270 275 282 282 283 284 286 288 290 296 295 298 295 294 295 298 299 297 301 303 300 300 302 303 304 307
241 242 246 247 250 254 255 259 265 266 268 268 273 276 279 284 284 285 286 289 291 293 294 295 296 295 297 298 295 299 300 299 303 301 305 303 304 307
246 246 248 248 251 254 256 260 263 265 268 270 274 276 279 282 283 281 284 287 289 291 294 294 294 296 297 299 300 300 302 302 303 302 303 306 304 304
248 246 249 253 253 257 259 260 262 267 269 269 274 278 279 279 281 285 286 288 290 291 292 294 294 298 297 296 298 300 301 303 301 302 306 305 305 305
245 247 251 253 254 258 261 262 265 268 271 273 274 277 278 280 282 284 286 287 290 291 292 298 296 296 295 296 300 301 303 304 305 305 303 305 306 307
247 250 252 257 259 260 263 267 269 271 271 273 274 278 279 281 285 285 288 289 293 293 292 292 294 295 295 297 300 302 304 303 303 303 304 306 307 305
247 253 255 257 260 262 262 265 269 271 274 276 279 283 283 283 286 289 287 288 291 292 291 295 296 294 298 300 302 300 302 301 301 303 308 307 306 306
252 256 259 259 261 264 266 268 268 272 275 276 277 282 281 282 283 287 286 288 290 291 293 291 296 294 297 299 303 300 297 298 303 306 306 307 308 306
255 256 259 260 263 264 266 267 269 270 274 274 275 276 282 281 280 286 286 287 291 291 292 294 294 296 298 298 297 297 299 302 304 305 308 311 307 301
254 258 256 258 262 262 262 265 268 270 272 274 275 276 279 281 281 285 286 287 288 293 294 294 295 297 297 297 298 299 300 303 306 311 310 308 304 303
253 256 259 261 262 263 265 266 266 269 272 272 274 278 277 280 282 283 286 286 291 293 294 295 297 297 300 300 299 299 304 309 312 312 308 304 303 305
256 256 259 263 267 267 270 269 268 273 277 277 279 277 280 279 280 282 285 286 288 293 294 294 297 299 300 300 300 303 311 311 311 309 308 308 307 309
256 259 262 264 265 265 269 269 275 271 273 275 276 277 277 278 283 283 285 288 292 293 296 297 299 298 299 299 301 306 311 310 308 307 307 307 307 310
258 260 263 263 264 267 270 273 273 273 273 275 277 279 278 279 282 286 289 292 294 295 297 298 299 299 298 300 306 312 311 308 306 307 308 309 308 309
259 261 263 265 268 269 270 272 273 275 277 277 277 279 281 284 287 290 292 294 294 295 297 299 298 296 300 306 310 311 309 307 308 309 311 311 309 311
260 262 265 267 269 270 271 272 273 274 276 276 277 281 284 285 288 290 293 293 294 296 298 297 295 298 305 309 310 307 307 307 308 310 311 314 312 311